Faro, Portugal

2:48 AM WET on November 21, 2019 (GMT +0000)
Faro

Weather History for LPFR - September, 2019

Change the Weather History Date:

Saturday, September 14, 2019

  Actual Average Record
Temperature  
Mean Temperature 74 °F -  
Max Temperature 81 °F 74 °F 93 °F (1998)
Min Temperature 68 °F 61 °F 59 °F (1996)
Cooling Degree Days 10    
Growing Degree Days 24 (Base 50)    
Moisture  
Dew Point 61 °F    
Average Humidity 62    
Maximum Humidity 88    
Minimum Humidity 40    
Precipitation  
Precipitation 0.00 in 0.05 in - ()
Sea Level Pressure  
Sea Level Pressure 30.05 in    
Wind  
Wind Speed 7 mph ()    
Max Wind Speed 17 mph    
Max Gust Speed -    
Visibility 7.5 miles    
Events      
Averages and records for this station are not official NWS values.
T = Trace of Precipitation, MM = Missing Value Source: Averaged Metar Reports

Daily Weather History Graph

Daily Weather History Graph

Search for Another Location

Airport or City:

Astronomy

Sep. 14, 2019 Rise Set
Actual Time 7:12 AM WEST 7:41 PM WEST
Civil Twilight 6:46 AM WEST 8:07 PM WEST
Nautical Twilight 6:16 AM WEST 8:38 PM WEST
Astronomical Twilight 5:44 AM WEST 9:09 PM WEST
Moon 8:16 PM WEST (9/14) 7:14 AM WEST (9/14)
Length of Visible Light 13h 20m
Length of Day
12h 28m
Full, 100% of the Moon is Illuminated
Sep 14
Full
Sep 22
Last Quarter
Sep 28
New
Oct 5
First Quarter
Oct 13
Full

Hourly Weather History & Observations

Time (WEST) Temp. Dew Point Humidity Pressure Visibility Wind Dir Wind Speed Gust Speed Precip Events Conditions
12:00 AM 69.8 °F 64.4 °F 83% 30.09 in - SE 2.3 mph - N/A   Clear
12:30 AM 69.8 °F 64.4 °F 83% 30.09 in - ESE 5.8 mph - N/A   Clear
1:00 AM 69 °F 62 °F 74% 30.11 in 12 mi East 2.2 mph - -   Clear
1:00 AM 69.8 °F 64.4 °F 83% 30.06 in - East 3.5 mph - N/A   Clear
1:30 AM 68.0 °F 60.8 °F 78% 30.06 in - ENE 3.5 mph - N/A   Clear
2:00 AM 72 °F 58 °F 53% 30.10 in - NE 8.9 mph - -  
2:00 AM 71.6 °F 59.0 °F 64% 30.06 in - NE 8.1 mph - N/A   Clear
2:30 AM 71.6 °F 57.2 °F 60% 30.06 in - NNE 9.2 mph - N/A   Clear
3:00 AM 71 °F 57 °F 53% 30.08 in - NE 8.9 mph - -  
3:00 AM 69.8 °F 57.2 °F 64% 30.06 in - NNE 6.9 mph - N/A   Clear
3:30 AM 69.8 °F 57.2 °F 64% 30.06 in - NNE 8.1 mph - N/A   Clear
4:00 AM 71 °F 55 °F 46% 30.06 in 12 mi NE 8.9 mph - -   Clear
4:00 AM 69.8 °F 53.6 °F 56% 30.04 in - NNE 8.1 mph - N/A   Clear
4:30 AM 69.8 °F 53.6 °F 56% 30.04 in - NNE 6.9 mph - N/A   Clear
5:00 AM 69.8 °F 53.6 °F 56% 30.04 in - NNE 5.8 mph - N/A   Clear
5:30 AM 69.8 °F 53.6 °F 56% 30.04 in - NNE 6.9 mph - N/A   Clear
6:00 AM 71.6 °F 53.6 °F 53% 30.04 in - NNE 6.9 mph - N/A   Clear
6:30 AM 71.6 °F 53.6 °F 53% 30.04 in - NNE 5.8 mph - N/A   Clear
7:00 AM 70 °F 55 °F 49% 30.06 in - NE 3.5 mph - -  
7:00 AM 71.6 °F 53.6 °F 53% 30.04 in - Variable 6.9 mph - N/A   Clear
7:30 AM 69.8 °F 55.4 °F 60% 30.04 in - NNE 6.9 mph - N/A   Clear
8:00 AM 72 °F 55 °F 44% 30.07 in - NNE 6.7 mph - -  
8:30 AM 73.4 °F 55.4 °F 53% 30.04 in 6.2 mi NNE 6.9 mph - N/A   Partly Cloudy
9:00 AM 76 °F 56 °F 40% 30.08 in - ENE 6.7 mph - -  
9:00 AM 75.2 °F 55.4 °F 50% 30.04 in 6.2 mi NNE 6.9 mph - N/A   Partly Cloudy
9:30 AM 77.0 °F 57.2 °F 50% 30.04 in 6.2 mi ENE 11.5 mph - N/A   Partly Cloudy
10:00 AM 78 °F 58 °F 40% 30.08 in 12 mi East 13.4 mph - -   Scattered Clouds
10:00 AM 77.0 °F 57.2 °F 50% 30.06 in 6.2 mi East 12.7 mph - N/A   Partly Cloudy
10:30 AM 78.8 °F 57.2 °F 47% 30.06 in 6.2 mi ENE 12.7 mph - N/A   Partly Cloudy
11:00 AM 79 °F 62 °F 45% 30.08 in - East 15.7 mph - -  
11:30 AM 78.8 °F 60.8 °F 54% 30.06 in 6.2 mi East 16.1 mph - N/A   Partly Cloudy
12:00 PM 80 °F 64 °F 49% 30.09 in - East 13.4 mph - -  
12:00 PM 78.8 °F 62.6 °F 57% 30.06 in 6.2 mi East 13.8 mph - N/A   Partly Cloudy
12:30 PM 78.8 °F 64.4 °F 61% 30.06 in 6.2 mi East 10.4 mph - N/A   Partly Cloudy
1:00 PM 80 °F 64 °F 50% 30.07 in 12 mi ESE 15.7 mph - -   Scattered Clouds
1:00 PM 78.8 °F 64.4 °F 61% 30.04 in 6.2 mi East 13.8 mph - N/A   Partly Cloudy
1:30 PM 78.8 °F 64.4 °F 61% 30.04 in 6.2 mi East 15.0 mph - N/A   Partly Cloudy
2:00 PM 77.0 °F 64.4 °F 65% 30.04 in 6.2 mi East 17.3 mph - N/A   Partly Cloudy
2:30 PM 77.0 °F 64.4 °F 65% 30.04 in 6.2 mi East 15.0 mph - N/A   Partly Cloudy
3:00 PM 79 °F 65 °F 53% 30.04 in - ESE 15.7 mph - -  
3:00 PM 77.0 °F 64.4 °F 65% 30.01 in 6.2 mi East 15.0 mph - N/A   Partly Cloudy
3:30 PM 77.0 °F 66.2 °F 69% 30.01 in 6.2 mi East 13.8 mph - N/A   Partly Cloudy
4:00 PM 77 °F 66 °F 60% 30.04 in 12 mi ESE 11.2 mph - -   Scattered Clouds
4:00 PM 77.0 °F 66.2 °F 69% 30.01 in 6.2 mi ESE 11.5 mph - N/A   Partly Cloudy
4:30 PM 77.0 °F 64.4 °F 65% 30.01 in 6.2 mi ESE 9.2 mph - N/A   Partly Cloudy
5:00 PM 80 °F 63 °F 46% 30.03 in - ESE 8.9 mph - -  
5:00 PM 77.0 °F 64.4 °F 65% 30.01 in 6.2 mi ESE 9.2 mph - N/A   Partly Cloudy
5:30 PM 78.8 °F 62.6 °F 57% 30.01 in 6.2 mi SE 6.9 mph - N/A   Partly Cloudy
6:00 PM 78.8 °F 64.4 °F 61% 30.01 in 6.2 mi SSE 5.8 mph - N/A   Partly Cloudy
6:30 PM 73.4 °F 64.4 °F 73% 30.01 in 6.2 mi SW 6.9 mph - N/A   Partly Cloudy
7:00 PM 76 °F 64 °F 58% 30.06 in 12 mi West 4.6 mph - -   Scattered Clouds
7:00 PM 75.2 °F 64.4 °F 69% 30.04 in 6.2 mi West 8.1 mph - N/A   Partly Cloudy
7:30 PM 73.4 °F 64.4 °F 73% 30.04 in 6.2 mi West 8.1 mph - N/A   Partly Cloudy
8:00 PM 74 °F 66 °F 68% 30.07 in - WNW 8.9 mph - -  
8:00 PM 73.4 °F 64.4 °F 73% 30.04 in 6.2 mi West 10.4 mph - N/A   Partly Cloudy
8:30 PM 73.4 °F 66.2 °F 78% 30.04 in 6.2 mi West 10.4 mph - N/A   Partly Cloudy
9:00 PM 73.4 °F 64.4 °F 73% 30.06 in - WSW 6.9 mph - N/A   Clear
9:30 PM 71.6 °F 66.2 °F 83% 30.06 in - West 8.1 mph - N/A   Clear
10:00 PM 72 °F 67 °F 79% 30.10 in 12 mi West 6.7 mph - -   Clear
10:00 PM 71.6 °F 66.2 °F 83% 30.06 in - West 6.9 mph - N/A   Clear
10:30 PM 71.6 °F 68.0 °F 88% 30.06 in - West 9.2 mph - N/A   Clear
11:00 PM 72 °F 67 °F 79% 30.09 in - WNW 4.5 mph - -  
11:00 PM 71.6 °F 68.0 °F 88% 30.06 in - WNW 6.9 mph - N/A   Clear
11:30 PM 71.6 °F 66.2 °F 83% 30.06 in - SW 3.5 mph - N/A   Clear